TimeEDT,TemperatureF,Dew PointF,Humidity,Sea Level PressureIn,VisibilityMPH,Wind Direction,Wind SpeedMPH,Gust SpeedMPH,PrecipitationIn,Events,Conditions,WindDirDegrees,DateUTC
12:06 AM,71.6,71.6,100,29.90,10.0,Calm,Calm,-,N/A,,Overcast,0,2013-07-01 04:06:00
12:54 AM,72.0,71.1,97,29.88,10.0,Calm,Calm,-,0.01,,Overcast,0,2013-07-01 04:54:00
1:54 AM,72.0,72.0,100,29.88,9.0,Calm,Calm,-,N/A,,Overcast,0,2013-07-01 05:54:00
2:54 AM,72.0,72.0,100,29.88,9.0,Calm,Calm,-,N/A,,Overcast,0,2013-07-01 06:54:00
3:54 AM,72.0,71.1,97,29.88,10.0,Calm,Calm,-,N/A,,Overcast,0,2013-07-01 07:54:00
4:54 AM,72.0,71.1,97,29.89,10.0,Calm,Calm,-,N/A,,Overcast,0,2013-07-01 08:54:00
5:54 AM,72.0,71.1,97,29.90,10.0,SSE,3.5,-,N/A,,Overcast,150,2013-07-01 09:54:00
6:54 AM,72.0,72.0,100,29.89,5.0,Calm,Calm,-,0.03,Rain,Light Rain,0,2013-07-01 10:54:00
7:04 AM,71.6,71.6,100,29.90,2.5,Variable,4.6,-,0.07,Rain,Rain,0,2013-07-01 11:04:00
7:12 AM,71.6,71.6,100,29.91,1.2,Variable,4.6,-,0.18,Rain,Rain,0,2013-07-01 11:12:00
7:17 AM,71.6,71.6,100,29.91,4.0,Variable,3.5,-,0.19,Rain,Light Rain,0,2013-07-01 11:17:00
7:31 AM,71.6,71.6,100,29.92,1.8,SW,10.4,28.8,0.45,Rain,Heavy Rain,230,2013-07-01 11:31:00
7:42 AM,69.8,69.8,100,29.94,2.0,SSW,10.4,17.3,0.66,Rain,Heavy Rain,200,2013-07-01 11:42:00
7:52 AM,69.8,69.8,100,29.92,1.5,WNW,3.5,-,0.86,Rain,Heavy Rain,290,2013-07-01 11:52:00
7:54 AM,70.0,69.1,97,29.91,1.5,Calm,Calm,-,0.87,Rain,Heavy Rain,0,2013-07-01 11:54:00
8:14 AM,69.8,69.8,100,29.95,0.8,Calm,Calm,-,0.61,Rain,Heavy Rain,0,2013-07-01 12:14:00
8:25 AM,69.8,68.0,94,29.96,2.0,Variable,3.5,-,0.68,Rain,Light Rain,0,2013-07-01 12:25:00
8:32 AM,69.8,68.0,94,29.96,10.0,Variable,3.5,-,0.68,Rain,Light Rain,0,2013-07-01 12:32:00
8:54 AM,70.0,69.1,97,29.94,10.0,Calm,Calm,-,0.68,Rain,Light Rain,0,2013-07-01 12:54:00
9:10 AM,69.8,68.0,94,29.95,10.0,Calm,Calm,-,0.00,Rain,Light Rain,0,2013-07-01 13:10:00
9:54 AM,72.0,69.1,91,29.94,10.0,Calm,Calm,-,0.00,,Mostly Cloudy,0,2013-07-01 13:54:00
10:36 AM,75.2,71.6,89,29.96,10.0,Calm,Calm,-,N/A,,Overcast,0,2013-07-01 14:36:00
10:54 AM,73.9,72.0,93,29.95,10.0,SSE,3.5,-,N/A,,Overcast,160,2013-07-01 14:54:00
11:46 AM,73.4,71.6,94,29.97,10.0,SSE,4.6,-,0.00,,Overcast,160,2013-07-01 15:46:00
11:54 AM,73.9,72.0,93,29.96,10.0,South,5.8,-,0.00,,Overcast,170,2013-07-01 15:54:00
12:15 PM,75.2,73.4,94,29.96,10.0,Variable,3.5,-,N/A,,Overcast,0,2013-07-01 16:15:00
12:54 PM,75.0,73.0,94,29.95,10.0,Variable,4.6,-,0.00,Rain,Light Rain,0,2013-07-01 16:54:00
1:54 PM,75.0,73.0,94,29.95,10.0,South,6.9,-,0.02,Rain,Light Rain,170,2013-07-01 17:54:00
2:50 PM,73.4,71.6,94,29.96,10.0,SSE,9.2,-,0.02,Rain,Light Rain,160,2013-07-01 18:50:00
2:54 PM,73.9,72.0,93,29.94,10.0,South,8.1,-,0.02,,Scattered Clouds,170,2013-07-01 18:54:00
3:54 PM,73.9,71.1,91,29.95,10.0,South,6.9,-,0.00,,Scattered Clouds,170,2013-07-01 19:54:00
4:03 PM,73.4,71.6,94,29.96,10.0,South,6.9,-,N/A,,Mostly Cloudy,180,2013-07-01 20:03:00
4:54 PM,75.0,71.1,87,29.96,10.0,SSW,8.1,-,N/A,,Overcast,210,2013-07-01 20:54:00
5:54 PM,75.0,71.1,87,29.96,10.0,South,3.5,-,N/A,,Overcast,190,2013-07-01 21:54:00
6:39 PM,75.2,69.8,83,29.98,10.0,South,8.1,-,N/A,,Overcast,170,2013-07-01 22:39:00
6:54 PM,75.9,71.1,85,29.96,10.0,Calm,Calm,-,N/A,,Overcast,0,2013-07-01 22:54:00
7:16 PM,75.2,71.6,89,29.98,10.0,Variable,4.6,-,N/A,,Mostly Cloudy,0,2013-07-01 23:16:00
7:54 PM,75.0,71.1,87,29.98,10.0,South,8.1,-,N/A,,Mostly Cloudy,170,2013-07-01 23:54:00
8:54 PM,73.9,71.1,91,29.99,10.0,South,5.8,-,N/A,,Mostly Cloudy,170,2013-07-02 00:54:00
9:19 PM,73.4,71.6,94,30.01,10.0,Calm,Calm,-,N/A,,Overcast,0,2013-07-02 01:19:00
9:54 PM,73.9,72.0,93,30.01,10.0,SSE,4.6,-,N/A,,Overcast,160,2013-07-02 01:54:00
10:54 PM,73.9,72.0,93,30.01,10.0,SSE,3.5,-,N/A,,Overcast,160,2013-07-02 02:54:00
11:15 PM,73.4,71.6,94,30.02,10.0,Variable,3.5,-,N/A,,Overcast,0,2013-07-02 03:15:00
11:54 PM,73.9,72.0,93,30.02,10.0,SSE,5.8,-,N/A,,Overcast,160,2013-07-02 03:54:00